EZS5890 LICJ-LFSB

Flight info

Callsign EZS5890
Flight time N/A
Altitude 38000
Route LURON DCT DORAS DCT ABESI DCT UTAVO DCT ELMUR T718 RIGVI
Aircraft A320/M-SDE3FGHIRWY/LB1

Departure

Time 2026-05-05 14:51
Airport Falcone–Borsellino Airport (LICJ)

Arrival

Time N/A
Airport EuroAirport Basel–Mulhouse–Freiburg (LFSB)
Time Latitude Longitude Altitude Speed Heading
2026-05-05 14:13 38.18571 13.10664 49 ft 0 kts 337°
2026-05-05 14:42 38.18554 13.10673 50 ft 4 kts 337°
2026-05-05 14:42 38.18532 13.10685 51 ft 1 kts 337°
2026-05-05 14:42 38.18511 13.10698 51 ft 4 kts 311°
2026-05-05 14:43 38.18507 13.10720 53 ft 3 kts 248°
2026-05-05 14:43 38.18513 13.10740 51 ft 0 kts 248°
2026-05-05 14:45 38.18510 13.10731 50 ft 2 kts 248°
2026-05-05 14:45 38.18506 13.10720 53 ft 0 kts 248°
2026-05-05 14:45 38.18497 13.10690 51 ft 9 kts 247°
2026-05-05 14:46 38.18477 13.10631 53 ft 5 kts 247°
2026-05-05 14:46 38.18461 13.10581 50 ft 10 kts 247°
2026-05-05 14:46 38.18400 13.10506 53 ft 15 kts 201°
2026-05-05 14:46 38.18314 13.10422 53 ft 13 kts 244°
2026-05-05 14:47 38.18256 13.10364 53 ft 12 kts 173°
2026-05-05 14:47 38.18189 13.10298 49 ft 16 kts 248°
2026-05-05 14:47 38.18139 13.10144 53 ft 20 kts 247°
2026-05-05 14:47 38.18086 13.09983 53 ft 19 kts 247°
2026-05-05 14:48 38.18035 13.09832 53 ft 18 kts 246°
2026-05-05 14:48 38.17986 13.09687 53 ft 19 kts 246°
2026-05-05 14:48 38.17927 13.09512 51 ft 24 kts 246°
2026-05-05 14:48 38.17854 13.09298 51 ft 29 kts 247°
2026-05-05 14:49 38.17787 13.09094 49 ft 22 kts 247°
2026-05-05 14:49 38.17735 13.08952 51 ft 15 kts 233°
2026-05-05 14:49 38.17654 13.08869 53 ft 15 kts 216°
2026-05-05 14:49 38.17571 13.08790 50 ft 17 kts 216°
2026-05-05 14:50 38.17490 13.08750 53 ft 12 kts 151°
2026-05-05 14:50 38.17503 13.08862 50 ft 21 kts 66°
2026-05-05 14:50 38.17646 13.09289 53 ft 85 kts 67°
2026-05-05 14:50 38.17958 13.10208 53 ft 139 kts 66°
2026-05-05 14:51 38.18367 13.11442 385 ft 157 kts 66°
2026-05-05 14:51 38.18795 13.12757 1000 ft 165 kts 67°
2026-05-05 14:51 38.19265 13.14158 1417 ft 185 kts 67°
2026-05-05 14:51 38.19804 13.15759 1691 ft 210 kts 67°
2026-05-05 14:52 38.20454 13.17552 2057 ft 236 kts 60°
2026-05-05 14:52 38.21491 13.19278 2677 ft 252 kts 46°
2026-05-05 14:52 38.22902 13.20651 3555 ft 261 kts 30°
2026-05-05 14:52 38.24574 13.21628 4411 ft 268 kts 23°
2026-05-05 14:53 38.26333 13.22523 5240 ft 276 kts 22°
2026-05-05 14:53 38.28128 13.23442 6113 ft 280 kts 22°
2026-05-05 14:53 38.29948 13.24393 6939 ft 286 kts 22°
2026-05-05 14:53 38.31803 13.25374 7752 ft 291 kts 22°
2026-05-05 14:54 38.33688 13.26376 8604 ft 296 kts 21°
2026-05-05 14:54 38.35602 13.27395 9437 ft 300 kts 21°
2026-05-05 14:54 38.37548 13.28430 10219 ft 307 kts 20°
2026-05-05 14:54 38.39635 13.29323 10556 ft 327 kts
2026-05-05 14:55 38.41944 13.29617 11022 ft 339 kts 355°
2026-05-05 14:55 38.44285 13.29257 11738 ft 340 kts 342°
2026-05-05 14:55 38.46553 13.28392 12513 ft 342 kts 337°
2026-05-05 14:55 38.48821 13.27428 13309 ft 345 kts 337°
2026-05-05 14:56 38.51107 13.26454 14058 ft 348 kts 336°
2026-05-05 14:56 38.53415 13.25465 14741 ft 351 kts 336°
2026-05-05 14:56 38.55738 13.24467 15447 ft 354 kts 337°
2026-05-05 14:56 38.58077 13.23466 16145 ft 356 kts 337°
2026-05-05 14:57 38.60435 13.22456 16843 ft 359 kts 337°
2026-05-05 14:57 38.62806 13.21447 17548 ft 361 kts 337°
2026-05-05 14:57 38.65194 13.20433 18235 ft 363 kts 337°
2026-05-05 14:57 38.66784 13.19755 18641 ft 365 kts 337°
2026-05-05 14:58 38.69201 13.18729 19211 ft 367 kts 337°
2026-05-05 14:58 38.71637 13.17687 19774 ft 370 kts 337°
2026-05-05 14:58 38.74093 13.16629 20335 ft 374 kts 337°
2026-05-05 14:58 38.76574 13.15576 20876 ft 378 kts 337°
2026-05-05 14:59 38.79080 13.14509 21425 ft 381 kts 337°
2026-05-05 14:59 38.82430 13.13071 22170 ft 386 kts 337°
2026-05-05 14:59 38.84157 13.12334 22541 ft 389 kts 338°
2026-05-05 14:59 38.86821 13.11548 23124 ft 398 kts 348°
2026-05-05 15:00 38.89608 13.11268 23700 ft 404 kts 352°
2026-05-05 15:00 38.92427 13.11076 24167 ft 407 kts 352°
2026-05-05 15:00 38.95267 13.10883 24648 ft 410 kts 352°
2026-05-05 15:00 38.98120 13.10670 25107 ft 412 kts 352°
2026-05-05 15:01 39.00987 13.10448 25579 ft 414 kts 352°
2026-05-05 15:01 39.03830 13.10237 26021 ft 416 kts 352°
2026-05-05 15:01 39.06726 13.10019 26475 ft 418 kts 352°
2026-05-05 15:01 39.09634 13.09802 26915 ft 420 kts 351°
2026-05-05 15:02 39.12556 13.09587 27337 ft 422 kts 351°
2026-05-05 15:02 39.15493 13.09366 27750 ft 424 kts 351°
2026-05-05 15:02 39.18444 13.09141 28156 ft 426 kts 351°
2026-05-05 15:02 39.21415 13.08921 28558 ft 428 kts 351°
2026-05-05 15:03 39.24397 13.08694 28950 ft 431 kts 351°
2026-05-05 15:03 39.27398 13.08468 29330 ft 433 kts 351°
2026-05-05 15:03 39.30414 13.08237 29709 ft 435 kts 351°
2026-05-05 15:03 39.33448 13.08010 30048 ft 438 kts 351°
2026-05-05 15:04 39.36501 13.07784 30347 ft 441 kts 351°
2026-05-05 15:04 39.39573 13.07557 30648 ft 443 kts 351°
2026-05-05 15:04 39.42654 13.07322 30953 ft 445 kts 351°
2026-05-05 15:04 39.45747 13.07071 31230 ft 446 kts 351°
2026-05-05 15:05 39.51953 13.06597 31960 ft 446 kts 351°
2026-05-05 15:05 39.55047 13.06367 32350 ft 445 kts 350°
2026-05-05 15:05 39.58123 13.06070 32728 ft 441 kts 346°
2026-05-05 15:06 39.61089 13.05251 33114 ft 432 kts 336°
2026-05-05 15:06 39.63868 13.03875 33481 ft 426 kts 331°
2026-05-05 15:06 39.66590 13.02348 33862 ft 425 kts 331°
2026-05-05 15:06 39.69277 13.00869 34215 ft 425 kts 331°
2026-05-05 15:07 39.71997 12.99389 34558 ft 423 kts 331°
2026-05-05 15:07 39.74705 12.97904 34935 ft 421 kts 331°
2026-05-05 15:07 39.77396 12.96422 35299 ft 419 kts 331°
2026-05-05 15:07 39.80073 12.94944 35647 ft 417 kts 331°
2026-05-05 15:08 39.82738 12.93473 35974 ft 416 kts 331°
2026-05-05 15:08 39.85402 12.92007 36281 ft 414 kts 331°
2026-05-05 15:08 39.88056 12.90554 36575 ft 413 kts 331°
2026-05-05 15:08 39.90702 12.89102 36861 ft 412 kts 331°
2026-05-05 15:09 39.93336 12.87649 37144 ft 411 kts 331°
2026-05-05 15:09 39.95963 12.86193 37425 ft 410 kts 331°
2026-05-05 15:09 39.98583 12.84746 37674 ft 408 kts 331°
2026-05-05 15:09 40.01197 12.83307 37933 ft 408 kts 331°
2026-05-05 15:10 40.03810 12.81860 38051 ft 407 kts 331°
2026-05-05 15:10 40.09006 12.78974 38056 ft 405 kts 331°
2026-05-05 15:11 40.14198 12.76094 38055 ft 405 kts 331°
2026-05-05 15:11 40.19386 12.73196 38051 ft 405 kts 331°
2026-05-05 15:12 40.24582 12.70310 38052 ft 406 kts 331°
2026-05-05 15:12 40.29737 12.67436 38048 ft 405 kts 330°
2026-05-05 15:13 40.34923 12.64537 38047 ft 405 kts 331°
2026-05-05 15:13 40.40113 12.61638 38042 ft 405 kts 330°
2026-05-05 15:14 40.45297 12.58725 38055 ft 405 kts 330°
2026-05-05 15:14 40.50481 12.55811 38051 ft 405 kts 330°
2026-05-05 15:15 40.55664 12.52907 38044 ft 405 kts 330°
2026-05-05 15:15 40.60844 12.49986 38043 ft 405 kts 330°
2026-05-05 15:16 40.65986 12.47085 38043 ft 405 kts 330°
2026-05-05 15:16 40.71166 12.44156 38053 ft 405 kts 330°
2026-05-05 15:17 40.76347 12.41222 38052 ft 405 kts 330°
2026-05-05 15:17 40.81522 12.38268 38051 ft 406 kts 330°
2026-05-05 15:18 40.86714 12.35331 38039 ft 406 kts 330°
2026-05-05 15:18 40.91906 12.32382 38042 ft 406 kts 330°
2026-05-05 15:19 40.97101 12.29422 38034 ft 407 kts 330°
2026-05-05 15:19 41.02254 12.26472 38036 ft 407 kts 330°
2026-05-05 15:20 41.07450 12.23499 38040 ft 407 kts 330°
2026-05-05 15:20 41.12648 12.20519 38063 ft 407 kts 329°
2026-05-05 15:21 41.17843 12.17536 38046 ft 407 kts 329°
2026-05-05 15:21 41.23043 12.14540 38044 ft 407 kts 329°
2026-05-05 15:22 41.28247 12.11548 38039 ft 407 kts 329°
2026-05-05 15:22 41.33450 12.08547 38037 ft 408 kts 329°
2026-05-05 15:23 41.38652 12.05550 38058 ft 408 kts 329°
2026-05-05 15:23 41.43853 12.02530 38055 ft 408 kts 329°
2026-05-05 15:24 41.49017 11.99545 38053 ft 407 kts 329°
2026-05-05 15:24 41.54211 11.96514 38052 ft 408 kts 329°
2026-05-05 15:25 41.59405 11.93482 38065 ft 407 kts 328°
2026-05-05 15:25 41.64595 11.90453 38057 ft 407 kts 329°
2026-05-05 15:26 41.69781 11.87432 38048 ft 406 kts 328°
2026-05-05 15:26 41.74960 11.84398 38045 ft 406 kts 328°
2026-05-05 15:27 41.80143 11.81364 38072 ft 407 kts 328°
2026-05-05 15:27 41.85320 11.78313 38062 ft 406 kts 328°
2026-05-05 15:28 41.90497 11.75260 38058 ft 406 kts 328°
2026-05-05 15:28 41.95679 11.72223 38045 ft 407 kts 328°
2026-05-05 15:29 42.00826 11.69186 38039 ft 407 kts 328°
2026-05-05 15:29 42.06001 11.66119 38053 ft 407 kts 328°
2026-05-05 15:30 42.11185 11.63050 38027 ft 407 kts 328°
2026-05-05 15:30 42.16373 11.59977 38020 ft 408 kts 328°
2026-05-05 15:31 42.21559 11.56880 38015 ft 408 kts 328°
2026-05-05 15:31 42.26747 11.53775 38017 ft 408 kts 328°
2026-05-05 15:32 42.31945 11.50689 38027 ft 408 kts 328°
2026-05-05 15:32 42.37137 11.47576 38030 ft 408 kts 328°
2026-05-05 15:33 42.42332 11.44476 38024 ft 408 kts 328°
2026-05-05 15:33 42.47519 11.41347 38034 ft 408 kts 328°
2026-05-05 15:34 42.52716 11.38220 38026 ft 409 kts 328°
2026-05-05 15:34 42.57877 11.35109 38028 ft 409 kts 328°
2026-05-05 15:35 42.63080 11.31975 38019 ft 409 kts 328°
2026-05-05 15:35 42.68283 11.28831 38033 ft 409 kts 328°
2026-05-05 15:36 42.73486 11.25676 38011 ft 410 kts 328°
2026-05-05 15:36 42.78706 11.22524 37995 ft 410 kts 328°
2026-05-05 15:37 42.83918 11.19343 37996 ft 411 kts 328°
2026-05-05 15:37 42.89138 11.16166 38019 ft 411 kts 328°
2026-05-05 15:38 42.94363 11.12982 38016 ft 412 kts 328°
2026-05-05 15:38 42.99586 11.09785 38005 ft 412 kts 328°
2026-05-05 15:39 43.04812 11.06582 37999 ft 412 kts 328°
2026-05-05 15:39 43.10031 11.03372 38015 ft 411 kts 328°
2026-05-05 15:40 43.15257 11.00173 37995 ft 412 kts 328°
2026-05-05 15:40 43.20485 10.96955 37991 ft 412 kts 328°
2026-05-05 15:41 43.25684 10.93760 37989 ft 412 kts 328°
2026-05-05 15:41 43.30914 10.90512 37991 ft 413 kts 328°
2026-05-05 15:42 43.36147 10.87262 38000 ft 413 kts 328°
2026-05-05 15:42 43.41392 10.84015 37999 ft 414 kts 328°
2026-05-05 15:43 43.46639 10.80751 37997 ft 414 kts 328°
2026-05-05 15:43 43.51877 10.77481 37996 ft 414 kts 328°
2026-05-05 15:44 43.57121 10.74213 38001 ft 414 kts 328°
2026-05-05 15:44 43.62371 10.70925 38007 ft 415 kts 328°
2026-05-05 15:45 43.67625 10.67638 38004 ft 414 kts 328°
2026-05-05 15:45 43.72867 10.64353 37996 ft 413 kts 328°
2026-05-05 15:46 43.78109 10.61047 38003 ft 414 kts 328°
2026-05-05 15:46 43.83357 10.57737 37997 ft 415 kts 328°
2026-05-05 15:47 43.88618 10.54413 37989 ft 416 kts 328°
2026-05-05 15:47 43.93892 10.51066 37998 ft 418 kts 328°
2026-05-05 15:48 43.99190 10.47721 37995 ft 419 kts 328°
2026-05-05 15:48 44.04498 10.44350 37987 ft 420 kts 328°
2026-05-05 15:49 44.09819 10.40964 37972 ft 421 kts 328°
2026-05-05 15:49 44.15143 10.37567 37995 ft 422 kts 328°
2026-05-05 15:50 44.20496 10.34139 37971 ft 425 kts 328°
2026-05-05 15:50 44.25875 10.30691 37961 ft 426 kts 329°
2026-05-05 15:51 44.31276 10.27239 37959 ft 428 kts 329°
2026-05-05 15:51 44.36682 10.23763 37960 ft 428 kts 329°
2026-05-05 15:52 44.42094 10.20275 37988 ft 428 kts 328°
2026-05-05 15:52 44.47502 10.16771 37980 ft 429 kts 329°
2026-05-05 15:53 44.52890 10.13294 37974 ft 429 kts 328°
2026-05-05 15:53 44.57427 10.10357 37974 ft 428 kts 329°
2026-05-05 15:54 44.63717 10.06268 37968 ft 430 kts 329°
2026-05-05 15:54 44.68267 10.03308 37965 ft 430 kts 329°
2026-05-05 15:55 44.73699 9.99766 37967 ft 431 kts 328°
2026-05-05 15:55 44.79139 9.96210 37983 ft 431 kts 329°
2026-05-05 15:56 44.84548 9.92663 37981 ft 432 kts 329°
2026-05-05 15:56 44.90002 9.89091 37967 ft 433 kts 329°
2026-05-05 15:57 44.95465 9.85491 37963 ft 434 kts 329°
2026-05-05 15:57 45.00950 9.81881 37966 ft 435 kts 329°
2026-05-05 15:58 45.06447 9.78266 37961 ft 435 kts 328°
2026-05-05 15:58 45.11943 9.74635 37954 ft 436 kts 329°
2026-05-05 15:59 45.17447 9.70977 37969 ft 437 kts 329°
2026-05-05 15:59 45.22958 9.67314 37973 ft 438 kts 329°
2026-05-05 16:00 45.28477 9.63637 38027 ft 439 kts 329°
2026-05-05 16:00 45.34007 9.59946 38063 ft 440 kts 329°
2026-05-05 16:01 45.39540 9.56239 38093 ft 440 kts 329°
2026-05-05 16:01 45.45084 9.52522 38123 ft 440 kts 329°
2026-05-05 16:02 45.50634 9.48800 38136 ft 441 kts 329°
2026-05-05 16:02 45.56182 9.45065 38135 ft 441 kts 329°
2026-05-05 16:03 45.61735 9.41313 38141 ft 442 kts 329°
2026-05-05 16:03 45.67297 9.37550 38128 ft 443 kts 328°
2026-05-05 16:03 45.70083 9.35662 37997 ft 443 kts 328°
2026-05-05 16:04 45.72877 9.33774 38007 ft 444 kts 328°
2026-05-05 16:04 45.78457 9.29993 38002 ft 444 kts 328°
2026-05-05 16:05 45.84041 9.26176 38000 ft 445 kts 328°
2026-05-05 16:05 45.89644 9.22351 38000 ft 446 kts 328°
2026-05-05 16:06 45.95245 9.18522 38001 ft 446 kts 328°
2026-05-05 16:06 46.00847 9.14688 38027 ft 446 kts 328°
2026-05-05 16:07 46.06464 9.10848 38036 ft 447 kts 328°
2026-05-05 16:07 46.12064 9.06980 38025 ft 446 kts 328°
2026-05-05 16:08 46.17971 9.04017 38011 ft 458 kts 346°
2026-05-05 16:08 46.24366 9.03130 38028 ft 462 kts 350°
2026-05-05 16:09 46.30778 9.02295 38020 ft 463 kts 350°
2026-05-05 16:09 46.37187 9.01437 38021 ft 462 kts 349°
2026-05-05 16:10 46.43591 9.00586 38011 ft 462 kts 349°
2026-05-05 16:10 46.49992 8.99708 37976 ft 462 kts 349°
2026-05-05 16:11 46.56400 8.98846 37981 ft 463 kts 350°
2026-05-05 16:12 46.69227 8.97120 37961 ft 464 kts 350°
2026-05-05 16:13 46.85292 8.94942 37342 ft 463 kts 350°
2026-05-05 16:13 46.88499 8.94494 37056 ft 463 kts 350°
2026-05-05 16:13 46.91704 8.94058 36792 ft 463 kts 350°
2026-05-05 16:14 46.98129 8.93179 36201 ft 462 kts 349°
2026-05-05 16:14 47.04482 8.92308 35121 ft 456 kts 349°
2026-05-05 16:15 47.10775 8.91436 34062 ft 453 kts 349°
2026-05-05 16:15 47.16795 8.89440 32980 ft 435 kts 332°
2026-05-05 16:16 47.21986 8.85289 31991 ft 419 kts 323°
2026-05-05 16:16 47.26948 8.80901 31039 ft 413 kts 324°
2026-05-05 16:17 47.31858 8.76578 30108 ft 409 kts 325°
2026-05-05 16:17 47.34291 8.74443 29711 ft 404 kts 325°
2026-05-05 16:18 47.39069 8.70243 28848 ft 397 kts 326°
2026-05-05 16:18 47.41434 8.68150 28582 ft 396 kts 325°
2026-05-05 16:18 47.46145 8.63973 28034 ft 393 kts 326°
2026-05-05 16:19 47.48491 8.61904 27763 ft 392 kts 326°
2026-05-05 16:19 47.50827 8.59839 27496 ft 391 kts 326°
2026-05-05 16:19 47.55435 8.55825 27056 ft 374 kts 325°
2026-05-05 16:20 47.60063 8.51598 26916 ft 411 kts 328°
2026-05-05 16:20 47.60381 8.51331 26908 ft 413 kts 328°
2026-05-05 16:21 47.65481 8.47055 26758 ft 446 kts 328°
2026-05-05 16:22 47.73428 8.38828 26529 ft 482 kts 317°